M I D A S
Marine Information and Data Acquisition System
Tripno 1356 of the Zeeleeuw from 2007-09-25 06:39:14 to 2007-09-25 15:25:09
Back to CruiseResearch ActivitiesStationsMapUnderway DataData graphs

EquipmentUnitsComment
TimeDGPSUTC
LatitudeDGPSDM.mWGS84
LongitudeDGPSDM.mWGS84
TemperatureSBE03/SBE38deg celciusITS90
ConductivitySBE21S/mITS90
SalinitySBE21 Practical Salinity Units
ChlorophylAChelsea fluorimeterg/lCalibrated in Aceton
Missing or incorrect values are displayed as -999
Sea surface data collected by the RV Zeeleeuw from 2007-09-25 06:26:18 to 2007-09-25 15:38:00
Time Latitude Longitude Temperature Conductivity Salinity ChlorophylA
2007-09-25 06:27:24 51°13.618 2°56.054 -999 -999 -999 -999
2007-09-25 06:28:24 51°13.652 2°55.956 -999 -999 -999 -999
2007-09-25 06:29:24 51°13.696 2°55.844 -999 -999 -999 -999
2007-09-25 06:30:24 51°13.712 2°55.746 -999 -999 -999 -999
2007-09-25 06:31:22 51°13.714 2°55.702 -999 -999 -999 -999
2007-09-25 06:32:20 51°13.736 2°55.705 -999 -999 -999 -999
2007-09-25 06:33:20 51°13.822 2°55.646 -999 -999 -999 -999
2007-09-25 06:34:20 51°13.932 2°55.561 -999 -999 -999 -999
2007-09-25 06:35:20 51°14.048 2°55.476 -999 -999 -999 -999
2007-09-25 06:36:22 51°14.165 2°55.381 -999 -999 -999 -999
2007-09-25 06:37:22 51°14.257 2°55.265 -999 -999 -999 -999
2007-09-25 06:38:20 51°14.343 2°55.113 -999 -999 -999 -999
2007-09-25 06:39:20 51°14.451 2°54.912 -999 -999 -999 -999
2007-09-25 06:40:21 51°14.625 2°54.762 -999 -999 -999 -999
2007-09-25 06:41:21 51°14.81 2°54.645 -999 -999 -999 -999
2007-09-25 06:42:21 51°14.993 2°54.533 -999 -999 -999 -999
2007-09-25 06:43:21 51°15.169 2°54.406 -999 -999 -999 -999
2007-09-25 06:44:21 51°15.345 2°54.269 -999 -999 -999 -999
2007-09-25 06:45:21 51°15.524 2°54.139 -999 -999 -999 -999
2007-09-25 06:46:21 51°15.704 2°54.008 -999 -999 -999 -999
2007-09-25 06:47:21 51°15.885 2°53.878 -999 -999 -999 -999
2007-09-25 06:48:21 51°16.025 2°53.93 -999 -999 -999 -999
2007-09-25 06:49:21 51°16.13 2°54.092 -999 -999 -999 -999
2007-09-25 06:50:21 51°16.232 2°54.245 -999 -999 -999 -999
2007-09-25 06:51:21 51°16.281 2°54.292 -999 -999 -999 -999
2007-09-25 06:52:21 51°16.289 2°54.279 -999 -999 -999 -999
2007-09-25 06:53:21 51°16.295 2°54.259 -999 -999 -999 -999
2007-09-25 06:54:21 51°16.297 2°54.239 -999 -999 -999 -999
2007-09-25 06:55:21 51°16.294 2°54.22 -999 -999 -999 -999
2007-09-25 06:56:21 51°16.304 2°54.187 -999 -999 -999 -999
2007-09-25 06:57:21 51°16.386 2°54.053 -999 -999 -999 -999
2007-09-25 06:58:21 51°16.523 2°53.826 -999 -999 -999 -999
2007-09-25 06:59:21 51°16.661 2°53.586 -999 -999 -999 -999
2007-09-25 07:00:21 51°16.797 2°53.348 -999 -999 -999 -999
2007-09-25 07:01:21 51°16.929 2°53.112 -999 -999 -999 -999
2007-09-25 07:02:21 51°17.061 2°52.882 -999 -999 -999 -999
2007-09-25 07:03:21 51°17.197 2°52.65 -999 -999 -999 -999
2007-09-25 07:04:21 51°17.331 2°52.417 -999 -999 -999 -999
2007-09-25 07:05:21 51°17.465 2°52.181 -999 -999 -999 -999
2007-09-25 07:06:21 51°17.601 2°51.947 -999 -999 -999 -999
2007-09-25 07:07:21 51°17.736 2°51.715 -999 -999 -999 -999
2007-09-25 07:08:21 51°17.874 2°51.485 -999 -999 -999 -999
2007-09-25 07:09:21 51°18.014 2°51.258 -999 -999 -999 -999
2007-09-25 07:10:21 51°18.159 2°51.039 -999 -999 -999 -999
2007-09-25 07:11:21 51°18.302 2°50.824 -999 -999 -999 -999
2007-09-25 07:12:21 51°18.43 2°50.759 -999 -999 -999 -999
2007-09-25 07:13:21 51°18.48 2°50.915 -999 -999 -999 -999
2007-09-25 07:14:21 51°18.505 2°51.003 -999 -999 -999 -999
2007-09-25 07:15:21 51°18.516 2°51.035 -999 -999 -999 -999
2007-09-25 07:16:21 51°18.514 2°51.057 -999 -999 -999 -999
2007-09-25 07:17:21 51°18.504 2°51.066 -999 -999 -999 -999
2007-09-25 07:18:21 51°18.492 2°51.067 -999 -999 -999 -999
2007-09-25 07:19:21 51°18.477 2°51.067 -999 -999 -999 -999
2007-09-25 07:20:21 51°18.471 2°51.132 -999 -999 -999 -999
2007-09-25 07:21:21 51°18.529 2°51.328 -999 -999 -999 -999
2007-09-25 07:22:21 51°18.594 2°51.602 -999 -999 -999 -999
2007-09-25 07:23:21 51°18.662 2°51.874 -999 -999 -999 -999
2007-09-25 07:24:21 51°18.734 2°52.151 -999 -999 -999 -999
2007-09-25 07:25:21 51°18.803 2°52.428 -999 -999 -999 -999
2007-09-25 07:26:21 51°18.876 2°52.7 -999 -999 -999 -999
2007-09-25 07:27:21 51°18.948 2°52.975 -999 -999 -999 -999
2007-09-25 07:28:21 51°19.02 2°53.247 -999 -999 -999 -999
2007-09-25 07:29:21 51°19.091 2°53.524 -999 -999 -999 -999
2007-09-25 07:30:21 51°19.156 2°53.799 -999 -999 -999 -999
2007-09-25 07:31:21 51°19.221 2°54.076 -999 -999 -999 -999
2007-09-25 07:32:21 51°19.291 2°54.347 -999 -999 -999 -999
2007-09-25 07:33:21 51°19.359 2°54.62 -999 -999 -999 -999
2007-09-25 07:34:21 51°19.429 2°54.895 -999 -999 -999 -999
2007-09-25 07:35:21 51°19.494 2°55.17 -999 -999 -999 -999
2007-09-25 07:36:21 51°19.56 2°55.444 -999 -999 -999 -999
2007-09-25 07:37:21 51°19.627 2°55.72 -999 -999 -999 -999
2007-09-25 07:38:21 51°19.698 2°55.991 -999 -999 -999 -999
2007-09-25 07:39:21 51°19.763 2°56.27 -999 -999 -999 -999
2007-09-25 07:40:21 51°19.825 2°56.549 -999 -999 -999 -999
2007-09-25 07:41:21 51°19.893 2°56.821 -999 -999 -999 -999
2007-09-25 07:42:21 51°19.961 2°57.098 -999 -999 -999 -999
2007-09-25 07:43:21 51°20.027 2°57.375 -999 -999 -999 -999
2007-09-25 07:44:21 51°20.098 2°57.65 -999 -999 -999 -999
2007-09-25 07:45:21 51°20.162 2°57.932 -999 -999 -999 -999
2007-09-25 07:46:21 51°20.229 2°58.207 -999 -999 -999 -999
2007-09-25 07:47:21 51°20.295 2°58.482 -999 -999 -999 -999
2007-09-25 07:48:21 51°20.363 2°58.76 -999 -999 -999 -999
2007-09-25 07:49:21 51°20.428 2°59.038 -999 -999 -999 -999
2007-09-25 07:50:21 51°20.495 2°59.314 -999 -999 -999 -999
2007-09-25 07:51:21 51°20.565 2°59.588 -999 -999 -999 -999
2007-09-25 07:52:21 51°20.629 2°59.862 -999 -999 -999 -999
2007-09-25 07:53:21 51°20.695 3°0.138 -999 -999 -999 -999
2007-09-25 07:54:21 51°20.763 3°0.414 -999 -999 -999 -999
2007-09-25 07:55:21 51°20.829 3°0.693 -999 -999 -999 -999
2007-09-25 07:56:21 51°20.89 3°0.975 -999 -999 -999 -999
2007-09-25 07:57:21 51°20.957 3°1.254 -999 -999 -999 -999
2007-09-25 07:58:21 51°21.023 3°1.532 -999 -999 -999 -999
2007-09-25 07:59:21 51°21.087 3°1.813 -999 -999 -999 -999
2007-09-25 08:00:21 51°21.152 3°2.097 -999 -999 -999 -999
2007-09-25 08:01:21 51°21.211 3°2.383 -999 -999 -999 -999
2007-09-25 08:02:21 51°21.276 3°2.667 -999 -999 -999 -999
2007-09-25 08:03:21 51°21.342 3°2.95 -999 -999 -999 -999
2007-09-25 08:04:21 51°21.404 3°3.235 -999 -999 -999 -999
2007-09-25 08:05:21 51°21.464 3°3.519 -999 -999 -999 -999
2007-09-25 08:06:21 51°21.523 3°3.811 -999 -999 -999 -999
2007-09-25 08:07:21 51°21.583 3°4.104 -999 -999 -999 -999
2007-09-25 08:08:21 51°21.64 3°4.393 -999 -999 -999 -999
2007-09-25 08:09:21 51°21.684 3°4.695 -999 -999 -999 -999
2007-09-25 08:10:21 51°21.725 3°4.992 -999 -999 -999 -999
2007-09-25 08:11:21 51°21.767 3°5.292 -999 -999 -999 -999
2007-09-25 08:12:21 51°21.811 3°5.589 -999 -999 -999 -999
2007-09-25 08:13:21 51°21.853 3°5.888 -999 -999 -999 -999
2007-09-25 08:14:21 51°21.896 3°6.186 -999 -999 -999 -999
2007-09-25 08:15:21 51°21.939 3°6.482 -999 -999 -999 -999
2007-09-25 08:16:21 51°21.985 3°6.782 -999 -999 -999 -999
2007-09-25 08:17:21 51°22.01 3°7.091 -999 -999 -999 -999
2007-09-25 08:18:21 51°22.029 3°7.399 -999 -999 -999 -999
2007-09-25 08:19:21 51°22.049 3°7.711 -999 -999 -999 -999
2007-09-25 08:20:21 51°22.07 3°8.025 -999 -999 -999 -999
2007-09-25 08:21:21 51°22.092 3°8.336 -999 -999 -999 -999
2007-09-25 08:22:21 51°22.115 3°8.653 -999 -999 -999 -999
2007-09-25 08:23:21 51°22.14 3°8.967 -999 -999 -999 -999
2007-09-25 08:24:21 51°22.161 3°9.282 -999 -999 -999 -999
2007-09-25 08:25:21 51°22.188 3°9.6 -999 -999 -999 -999
2007-09-25 08:26:21 51°22.213 3°9.921 -999 -999 -999 -999
2007-09-25 08:27:21 51°22.238 3°10.244 -999 -999 -999 -999
2007-09-25 08:28:21 51°22.262 3°10.565 -999 -999 -999 -999
2007-09-25 08:29:21 51°22.294 3°10.891 -999 -999 -999 -999
2007-09-25 08:30:21 51°22.322 3°11.219 -999 -999 -999 -999
2007-09-25 08:31:21 51°22.366 3°11.539 -999 -999 -999 -999
2007-09-25 08:32:21 51°22.426 3°11.853 -999 -999 -999 -999
2007-09-25 08:33:21 51°22.467 3°12.172 -999 -999 -999 -999
2007-09-25 08:34:21 51°22.478 3°12.495 -999 -999 -999 -999
2007-09-25 08:35:21 51°22.488 3°12.762 -999 -999 -999 -999
2007-09-25 08:36:21 51°22.5 3°12.983 -999 -999 -999 -999
2007-09-25 08:37:21 51°22.522 3°13.151 -999 -999 -999 -999
2007-09-25 08:38:21 51°22.567 3°13.212 -999 -999 -999 -999
2007-09-25 08:39:21 51°22.607 3°13.233 -999 -999 -999 -999
2007-09-25 08:40:21 51°22.626 3°13.244 -999 -999 -999 -999
2007-09-25 08:41:21 51°22.637 3°13.253 -999 -999 -999 -999
2007-09-25 08:42:21 51°22.645 3°13.264 -999 -999 -999 -999
2007-09-25 08:43:21 51°22.652 3°13.275 -999 -999 -999 -999
2007-09-25 08:44:21 51°22.718 3°13.251 -999 -999 -999 -999
2007-09-25 08:45:21 51°22.886 3°13.168 -999 -999 -999 -999
2007-09-25 08:46:21 51°23.079 3°13.068 -999 -999 -999 -999
2007-09-25 08:47:21 51°23.274 3°12.971 -999 -999 -999 -999
2007-09-25 08:48:21 51°23.468 3°12.875 -999 -999 -999 -999
2007-09-25 08:49:21 51°23.664 3°12.785 -999 -999 -999 -999
2007-09-25 08:50:21 51°23.857 3°12.695 -999 -999 -999 -999
2007-09-25 08:51:21 51°24.05 3°12.611 -999 -999 -999 -999
2007-09-25 08:52:21 51°24.248 3°12.528 -999 -999 -999 -999
2007-09-25 08:53:21 51°24.447 3°12.453 -999 -999 -999 -999
2007-09-25 08:54:21 51°24.638 3°12.362 -999 -999 -999 -999
2007-09-25 08:55:21 51°24.799 3°12.196 -999 -999 -999 -999
2007-09-25 08:56:21 51°24.955 3°12.02 -999 -999 -999 -999
2007-09-25 08:57:21 51°25.102 3°11.83 -999 -999 -999 -999
2007-09-25 08:58:21 51°25.208 3°11.589 -999 -999 -999 -999
2007-09-25 08:59:21 51°25.306 3°11.34 -999 -999 -999 -999
2007-09-25 09:00:22 51°25.404 3°11.09 -999 -999 -999 -999
2007-09-25 09:01:21 51°25.499 3°10.854 -999 -999 -999 -999
2007-09-25 09:02:21 51°25.594 3°10.609 -999 -999 -999 -999
2007-09-25 09:03:21 51°25.687 3°10.364 -999 -999 -999 -999
2007-09-25 09:04:21 51°25.784 3°10.122 -999 -999 -999 -999
2007-09-25 09:05:21 51°25.876 3°9.872 -999 -999 -999 -999
2007-09-25 09:06:21 51°25.972 3°9.627 -999 -999 -999 -999
2007-09-25 09:07:21 51°26.067 3°9.373 -999 -999 -999 -999
2007-09-25 09:08:21 51°26.154 3°9.144 -999 -999 -999 -999
2007-09-25 09:09:21 51°26.239 3°8.926 -999 -999 -999 -999
2007-09-25 09:10:21 51°26.312 3°8.735 -999 -999 -999 -999
2007-09-25 09:11:21 51°26.375 3°8.567 -999 -999 -999 -999
2007-09-25 09:12:21 51°26.414 3°8.456 -999 -999 -999 -999
2007-09-25 09:13:21 51°26.435 3°8.382 -999 -999 -999 -999
2007-09-25 09:14:21 51°26.448 3°8.343 -999 -999 -999 -999
2007-09-25 09:15:21 51°26.448 3°8.336 -999 -999 -999 -999
2007-09-25 09:16:21 51°26.447 3°8.345 -999 -999 -999 -999
2007-09-25 09:17:21 51°26.444 3°8.368 -999 -999 -999 -999
2007-09-25 09:18:21 51°26.441 3°8.393 -999 -999 -999 -999
2007-09-25 09:19:21 51°26.481 3°8.298 -999 -999 -999 -999
2007-09-25 09:20:22 51°26.559 3°8.055 -999 -999 -999 -999
2007-09-25 09:21:22 51°26.637 3°7.829 -999 -999 -999 -999
2007-09-25 09:22:21 51°26.669 3°7.733 -999 -999 -999 -999
2007-09-25 09:23:21 51°26.687 3°7.685 -999 -999 -999 -999
2007-09-25 09:24:21 51°26.699 3°7.656 -999 -999 -999 -999
2007-09-25 09:25:21 51°26.71 3°7.632 -999 -999 -999 -999
2007-09-25 09:26:21 51°26.723 3°7.61 -999 -999 -999 -999
2007-09-25 09:27:21 51°26.734 3°7.593 -999 -999 -999 -999
2007-09-25 09:28:21 51°26.746 3°7.577 -999 -999 -999 -999
2007-09-25 09:29:21 51°26.758 3°7.56 -999 -999 -999 -999
2007-09-25 09:30:21 51°26.771 3°7.544 -999 -999 -999 -999
2007-09-25 09:31:21 51°26.783 3°7.532 -999 -999 -999 -999
2007-09-25 09:32:21 51°26.796 3°7.52 -999 -999 -999 -999
2007-09-25 09:33:21 51°26.81 3°7.509 -999 -999 -999 -999
2007-09-25 09:34:21 51°26.822 3°7.499 -999 -999 -999 -999
2007-09-25 09:35:21 51°26.854 3°7.442 -999 -999 -999 -999
2007-09-25 09:36:21 51°26.94 3°7.232 -999 -999 -999 -999
2007-09-25 09:37:21 51°27.032 3°6.991 -999 -999 -999 -999
2007-09-25 09:38:21 51°27.117 3°6.727 -999 -999 -999 -999
2007-09-25 09:39:21 51°27.204 3°6.471 -999 -999 -999 -999
2007-09-25 09:40:21 51°27.288 3°6.211 -999 -999 -999 -999
2007-09-25 09:41:21 51°27.374 3°5.945 -999 -999 -999 -999
2007-09-25 09:42:21 51°27.461 3°5.68 -999 -999 -999 -999
2007-09-25 09:43:21 51°27.547 3°5.412 -999 -999 -999 -999
2007-09-25 09:44:21 51°27.638 3°5.144 -999 -999 -999 -999
2007-09-25 09:45:21 51°27.726 3°4.883 -999 -999 -999 -999
2007-09-25 09:46:21 51°27.833 3°4.643 -999 -999 -999 -999
2007-09-25 09:47:21 51°27.955 3°4.427 -999 -999 -999 -999
2007-09-25 09:48:21 51°28.03 3°4.198 -999 -999 -999 -999
2007-09-25 09:49:21 51°28.106 3°3.977 -999 -999 -999 -999
2007-09-25 09:50:22 51°28.175 3°3.803 -999 -999 -999 -999
2007-09-25 09:51:21 51°28.225 3°3.67 -999 -999 -999 -999
2007-09-25 09:52:21 51°28.263 3°3.576 -999 -999 -999 -999
2007-09-25 09:53:21 51°28.287 3°3.525 -999 -999 -999 -999
2007-09-25 09:54:21 51°28.307 3°3.505 -999 -999 -999 -999
2007-09-25 09:55:21 51°28.324 3°3.512 -999 -999 -999 -999
2007-09-25 09:56:21 51°28.337 3°3.539 -999 -999 -999 -999
2007-09-25 09:57:21 51°28.349 3°3.572 -999 -999 -999 -999
2007-09-25 09:58:21 51°28.379 3°3.56 -999 -999 -999 -999
2007-09-25 09:59:21 51°28.38 3°3.489 -999 -999 -999 -999
2007-09-25 10:00:21 51°28.343 3°3.435 -999 -999 -999 -999
2007-09-25 10:01:21 51°28.303 3°3.359 -999 -999 -999 -999
2007-09-25 10:02:21 51°28.273 3°3.281 -999 -999 -999 -999
2007-09-25 10:03:21 51°28.243 3°3.204 -999 -999 -999 -999
2007-09-25 10:04:21 51°28.213 3°3.127 -999 -999 -999 -999
2007-09-25 10:05:21 51°28.187 3°3.06 -999 -999 -999 -999
2007-09-25 10:06:21 51°28.159 3°2.988 -999 -999 -999 -999
2007-09-25 10:07:21 51°28.131 3°2.911 -999 -999 -999 -999
2007-09-25 10:08:21 51°28.104 3°2.839 -999 -999 -999 -999
2007-09-25 10:09:21 51°28.079 3°2.758 -999 -999 -999 -999
2007-09-25 10:10:21 51°28.048 3°2.67 -999 -999 -999 -999
2007-09-25 10:11:21 51°28.016 3°2.591 -999 -999 -999 -999
2007-09-25 10:12:21 51°27.994 3°2.519 -999 -999 -999 -999
2007-09-25 10:13:21 51°27.968 3°2.442 -999 -999 -999 -999
2007-09-25 10:14:21 51°27.942 3°2.355 -999 -999 -999 -999
2007-09-25 10:15:21 51°27.914 3°2.262 -999 -999 -999 -999
2007-09-25 10:16:21 51°27.886 3°2.174 -999 -999 -999 -999
2007-09-25 10:17:21 51°27.866 3°2.102 -999 -999 -999 -999
2007-09-25 10:18:21 51°27.847 3°2.025 -999 -999 -999 -999
2007-09-25 10:19:21 51°27.825 3°1.935 -999 -999 -999 -999
2007-09-25 10:20:21 51°27.801 3°1.838 -999 -999 -999 -999
2007-09-25 10:21:21 51°27.778 3°1.739 -999 -999 -999 -999
2007-09-25 10:22:21 51°27.744 3°1.555 -999 -999 -999 -999
2007-09-25 10:23:21 51°27.708 3°1.276 -999 -999 -999 -999
2007-09-25 10:24:21 51°27.675 3°1 -999 -999 -999 -999
2007-09-25 10:25:21 51°27.642 3°0.709 -999 -999 -999 -999
2007-09-25 10:26:21 51°27.611 3°0.422 -999 -999 -999 -999
2007-09-25 10:27:21 51°27.575 3°0.135 -999 -999 -999 -999
2007-09-25 10:28:21 51°27.541 2°59.847 -999 -999 -999 -999
2007-09-25 10:29:21 51°27.507 2°59.563 -999 -999 -999 -999
2007-09-25 10:30:21 51°27.471 2°59.277 -999 -999 -999 -999
2007-09-25 10:31:21 51°27.435 2°58.994 -999 -999 -999 -999
2007-09-25 10:32:21 51°27.4 2°58.712 -999 -999 -999 -999
2007-09-25 10:33:21 51°27.366 2°58.432 -999 -999 -999 -999
2007-09-25 10:34:21 51°27.332 2°58.146 -999 -999 -999 -999
2007-09-25 10:35:21 51°27.297 2°57.858 -999 -999 -999 -999
2007-09-25 10:36:21 51°27.262 2°57.57 -999 -999 -999 -999
2007-09-25 10:37:21 51°27.228 2°57.284 -999 -999 -999 -999
2007-09-25 10:38:21 51°27.194 2°56.997 -999 -999 -999 -999
2007-09-25 10:39:21 51°27.158 2°56.718 -999 -999 -999 -999
2007-09-25 10:40:21 51°27.123 2°56.439 -999 -999 -999 -999
2007-09-25 10:41:21 51°27.088 2°56.156 -999 -999 -999 -999
2007-09-25 10:42:21 51°27.053 2°55.869 -999 -999 -999 -999
2007-09-25 10:43:21 51°27.018 2°55.585 -999 -999 -999 -999
2007-09-25 10:44:21 51°26.982 2°55.299 -999 -999 -999 -999
2007-09-25 10:45:21 51°26.946 2°55.015 -999 -999 -999 -999
2007-09-25 10:46:21 51°26.911 2°54.733 -999 -999 -999 -999
2007-09-25 10:47:21 51°26.877 2°54.452 -999 -999 -999 -999
2007-09-25 10:48:21 51°26.845 2°54.174 -999 -999 -999 -999
2007-09-25 10:49:22 51°26.803 2°53.894 -999 -999 -999 -999
2007-09-25 10:50:21 51°26.763 2°53.62 -999 -999 -999 -999
2007-09-25 10:51:22 51°26.721 2°53.332 -999 -999 -999 -999
2007-09-25 10:52:21 51°26.677 2°53.056 -999 -999 -999 -999
2007-09-25 10:53:21 51°26.632 2°52.779 -999 -999 -999 -999
2007-09-25 10:54:21 51°26.585 2°52.505 -999 -999 -999 -999
2007-09-25 10:55:21 51°26.539 2°52.233 -999 -999 -999 -999
2007-09-25 10:56:21 51°26.494 2°51.962 -999 -999 -999 -999
2007-09-25 10:57:21 51°26.448 2°51.69 -999 -999 -999 -999
2007-09-25 10:58:21 51°26.408 2°51.417 -999 -999 -999 -999
2007-09-25 10:59:21 51°26.368 2°51.14 -999 -999 -999 -999
2007-09-25 11:00:21 51°26.329 2°50.868 -999 -999 -999 -999
2007-09-25 11:01:21 51°26.287 2°50.595 -999 -999 -999 -999
2007-09-25 11:02:21 51°26.246 2°50.319 -999 -999 -999 -999
2007-09-25 11:03:21 51°26.204 2°50.047 -999 -999 -999 -999
2007-09-25 11:04:21 51°26.163 2°49.775 -999 -999 -999 -999
2007-09-25 11:05:21 51°26.121 2°49.504 -999 -999 -999 -999
2007-09-25 11:06:21 51°26.084 2°49.23 -999 -999 -999 -999
2007-09-25 11:07:21 51°26.056 2°48.983 -999 -999 -999 -999
2007-09-25 11:08:21 51°26.037 2°48.803 -999 -999 -999 -999
2007-09-25 11:09:21 51°26.028 2°48.674 -999 -999 -999 -999
2007-09-25 11:10:21 51°26.019 2°48.586 -999 -999 -999 -999
2007-09-25 11:11:21 51°26.016 2°48.56 -999 -999 -999 -999
2007-09-25 11:12:21 51°26.014 2°48.561 -999 -999 -999 -999
2007-09-25 11:13:21 51°26.021 2°48.587 -999 -999 -999 -999
2007-09-25 11:14:21 51°26.032 2°48.633 -999 -999 -999 -999
2007-09-25 11:15:21 51°26.049 2°48.684 -999 -999 -999 -999
2007-09-25 11:16:21 51°26.07 2°48.735 -999 -999 -999 -999
2007-09-25 11:17:21 51°26.09 2°48.784 -999 -999 -999 -999
2007-09-25 11:18:21 51°26.111 2°48.834 -999 -999 -999 -999
2007-09-25 11:19:21 51°26.111 2°48.903 -999 -999 -999 -999
2007-09-25 11:20:21 51°26.071 2°48.927 -999 -999 -999 -999
2007-09-25 11:21:21 51°26.04 2°48.868 -999 -999 -999 -999
2007-09-25 11:22:21 51°26.002 2°48.797 -999 -999 -999 -999
2007-09-25 11:23:21 51°25.969 2°48.703 -999 -999 -999 -999
2007-09-25 11:24:21 51°25.935 2°48.603 -999 -999 -999 -999
2007-09-25 11:25:21 51°25.902 2°48.506 -999 -999 -999 -999
2007-09-25 11:26:21 51°25.867 2°48.411 -999 -999 -999 -999
2007-09-25 11:27:21 51°25.836 2°48.305 -999 -999 -999 -999
2007-09-25 11:28:21 51°25.8 2°48.201 -999 -999 -999 -999
2007-09-25 11:29:21 51°25.763 2°48.096 -999 -999 -999 -999
2007-09-25 11:30:21 51°25.736 2°47.997 -999 -999 -999 -999
2007-09-25 11:31:21 51°25.708 2°47.896 -999 -999 -999 -999
2007-09-25 11:32:21 51°25.677 2°47.801 -999 -999 -999 -999
2007-09-25 11:33:21 51°25.642 2°47.702 -999 -999 -999 -999
2007-09-25 11:34:21 51°25.581 2°47.488 -999 -999 -999 -999
2007-09-25 11:35:21 51°25.515 2°47.23 -999 -999 -999 -999
2007-09-25 11:36:21 51°25.447 2°46.969 -999 -999 -999 -999
2007-09-25 11:37:21 51°25.376 2°46.707 -999 -999 -999 -999
2007-09-25 11:38:21 51°25.308 2°46.443 -999 -999 -999 -999
2007-09-25 11:39:22 51°25.24 2°46.174 -999 -999 -999 -999
2007-09-25 11:40:21 51°25.173 2°45.914 -999 -999 -999 -999
2007-09-25 11:41:21 51°25.106 2°45.652 -999 -999 -999 -999
2007-09-25 11:42:21 51°25.038 2°45.394 -999 -999 -999 -999
2007-09-25 11:43:21 51°24.971 2°45.134 -999 -999 -999 -999
2007-09-25 11:44:22 51°24.903 2°44.869 -999 -999 -999 -999
2007-09-25 11:45:21 51°24.838 2°44.611 -999 -999 -999 -999
2007-09-25 11:46:22 51°24.772 2°44.346 -999 -999 -999 -999
2007-09-25 11:47:21 51°24.705 2°44.091 -999 -999 -999 -999
2007-09-25 11:48:21 51°24.637 2°43.832 -999 -999 -999 -999
2007-09-25 11:49:21 51°24.571 2°43.57 -999 -999 -999 -999
2007-09-25 11:50:21 51°24.504 2°43.307 -999 -999 -999 -999
2007-09-25 11:51:21 51°24.438 2°43.046 -999 -999 -999 -999
2007-09-25 11:52:21 51°24.374 2°42.786 -999 -999 -999 -999
2007-09-25 11:53:22 51°24.307 2°42.522 -999 -999 -999 -999
2007-09-25 11:54:21 51°24.241 2°42.266 -999 -999 -999 -999
2007-09-25 11:55:22 51°24.155 2°42.021 -999 -999 -999 -999
2007-09-25 11:56:21 51°24.059 2°41.795 -999 -999 -999 -999
2007-09-25 11:57:22 51°23.958 2°41.558 -999 -999 -999 -999
2007-09-25 11:58:21 51°23.86 2°41.324 -999 -999 -999 -999
2007-09-25 11:59:22 51°23.762 2°41.082 -999 -999 -999 -999
2007-09-25 12:00:22 51°23.665 2°40.847 -999 -999 -999 -999
2007-09-25 12:01:21 51°23.602 2°40.591 -999 -999 -999 -999
2007-09-25 12:02:21 51°23.545 2°40.323 -999 -999 -999 -999
2007-09-25 12:03:21 51°23.486 2°40.051 -999 -999 -999 -999
2007-09-25 12:04:21 51°23.428 2°39.785 -999 -999 -999 -999
2007-09-25 12:05:21 51°23.37 2°39.515 -999 -999 -999 -999
2007-09-25 12:06:21 51°23.312 2°39.247 -999 -999 -999 -999
2007-09-25 12:07:22 51°23.253 2°38.971 -999 -999 -999 -999
2007-09-25 12:08:21 51°23.199 2°38.715 -999 -999 -999 -999
2007-09-25 12:09:21 51°23.145 2°38.459 -999 -999 -999 -999
2007-09-25 12:10:21 51°23.094 2°38.201 -999 -999 -999 -999
2007-09-25 12:11:22 51°23.039 2°37.937 -999 -999 -999 -999
2007-09-25 12:12:21 51°22.988 2°37.679 -999 -999 -999 -999
2007-09-25 12:13:22 51°22.932 2°37.409 -999 -999 -999 -999
2007-09-25 12:14:21 51°22.876 2°37.147 -999 -999 -999 -999
2007-09-25 12:15:22 51°22.819 2°36.882 -999 -999 -999 -999
2007-09-25 12:16:21 51°22.765 2°36.624 -999 -999 -999 -999
2007-09-25 12:17:22 51°22.709 2°36.356 -999 -999 -999 -999
2007-09-25 12:18:22 51°22.655 2°36.088 -999 -999 -999 -999
2007-09-25 12:19:21 51°22.601 2°35.827 -999 -999 -999 -999
2007-09-25 12:20:21 51°22.546 2°35.559 -999 -999 -999 -999
2007-09-25 12:21:21 51°22.431 2°35.369 -999 -999 -999 -999
2007-09-25 12:22:21 51°22.251 2°35.356 -999 -999 -999 -999
2007-09-25 12:23:22 51°22.066 2°35.355 -999 -999 -999 -999
2007-09-25 12:24:21 51°21.887 2°35.347 -999 -999 -999 -999
2007-09-25 12:25:22 51°21.706 2°35.331 -999 -999 -999 -999
2007-09-25 12:26:21 51°21.531 2°35.314 -999 -999 -999 -999
2007-09-25 12:27:22 51°21.356 2°35.272 -999 -999 -999 -999
2007-09-25 12:28:21 51°21.252 2°35.078 -999 -999 -999 -999
2007-09-25 12:29:22 51°21.198 2°34.81 -999 -999 -999 -999
2007-09-25 12:30:21 51°21.131 2°34.561 -999 -999 -999 -999
2007-09-25 12:31:22 51°21.062 2°34.3 -999 -999 -999 -999
2007-09-25 12:32:21 51°21.001 2°34.041 -999 -999 -999 -999
2007-09-25 12:33:22 51°20.948 2°33.769 -999 -999 -999 -999
2007-09-25 12:34:22 51°20.891 2°33.503 -999 -999 -999 -999
2007-09-25 12:35:22 51°20.834 2°33.237 -999 -999 -999 -999
2007-09-25 12:36:22 51°20.773 2°32.97 -999 -999 -999 -999
2007-09-25 12:37:21 51°20.71 2°32.708 -999 -999 -999 -999
2007-09-25 12:38:22 51°20.647 2°32.435 -999 -999 -999 -999
2007-09-25 12:39:22 51°20.583 2°32.163 -999 -999 -999 -999
2007-09-25 12:40:21 51°20.517 2°31.904 -999 -999 -999 -999
2007-09-25 12:41:22 51°20.447 2°31.634 -999 -999 -999 -999
2007-09-25 12:42:21 51°20.376 2°31.375 -999 -999 -999 -999
2007-09-25 12:43:22 51°20.304 2°31.107 -999 -999 -999 -999
2007-09-25 12:44:21 51°20.226 2°30.856 -999 -999 -999 -999
2007-09-25 12:45:22 51°20.155 2°30.607 -999 -999 -999 -999
2007-09-25 12:46:21 51°20.099 2°30.399 -999 -999 -999 -999
2007-09-25 12:47:22 51°20.046 2°30.206 -999 -999 -999 -999
2007-09-25 12:48:21 51°20.008 2°30.056 -999 -999 -999 -999
2007-09-25 12:49:22 51°19.996 2°30.008 -999 -999 -999 -999
2007-09-25 12:50:22 51°20.004 2°30.01 -999 -999 -999 -999
2007-09-25 12:51:22 51°20.016 2°30.033 -999 -999 -999 -999
2007-09-25 12:52:22 51°20.03 2°30.068 -999 -999 -999 -999
2007-09-25 12:53:22 51°20.045 2°30.11 -999 -999 -999 -999
2007-09-25 12:54:22 51°20.061 2°30.158 -999 -999 -999 -999
2007-09-25 12:55:21 51°20.076 2°30.2 -999 -999 -999 -999
2007-09-25 12:56:21 51°20.057 2°30.218 -999 -999 -999 -999
2007-09-25 12:57:22 51°19.997 2°30.335 -999 -999 -999 -999
2007-09-25 12:58:21 51°19.854 2°30.53 -999 -999 -999 -999
2007-09-25 12:59:22 51°19.705 2°30.771 -999 -999 -999 -999
2007-09-25 13:00:21 51°19.567 2°31.016 -999 -999 -999 -999
2007-09-25 13:01:22 51°19.435 2°31.281 -999 -999 -999 -999
2007-09-25 13:02:21 51°19.309 2°31.537 -999 -999 -999 -999
2007-09-25 13:03:22 51°19.177 2°31.8 -999 -999 -999 -999
2007-09-25 13:04:22 51°19.047 2°32.062 -999 -999 -999 -999
2007-09-25 13:05:22 51°18.915 2°32.316 -999 -999 -999 -999
2007-09-25 13:06:22 51°18.775 2°32.559 -999 -999 -999 -999
2007-09-25 13:07:22 51°18.639 2°32.803 -999 -999 -999 -999
2007-09-25 13:08:22 51°18.501 2°33.041 -999 -999 -999 -999
2007-09-25 13:09:22 51°18.364 2°33.28 -999 -999 -999 -999
2007-09-25 13:10:22 51°18.225 2°33.518 -999 -999 -999 -999
2007-09-25 13:11:22 51°18.084 2°33.76 -999 -999 -999 -999
2007-09-25 13:12:22 51°17.945 2°34.003 -999 -999 -999 -999
2007-09-25 13:13:22 51°17.794 2°34.224 -999 -999 -999 -999
2007-09-25 13:14:21 51°17.645 2°34.44 -999 -999 -999 -999
2007-09-25 13:15:22 51°17.49 2°34.667 -999 -999 -999 -999
2007-09-25 13:16:21 51°17.337 2°34.882 -999 -999 -999 -999
2007-09-25 13:17:22 51°17.179 2°35.104 -999 -999 -999 -999
2007-09-25 13:18:21 51°17.025 2°35.314 -999 -999 -999 -999
2007-09-25 13:19:22 51°16.865 2°35.533 -999 -999 -999 -999
2007-09-25 13:20:21 51°16.709 2°35.736 -999 -999 -999 -999
2007-09-25 13:21:22 51°16.551 2°35.954 -999 -999 -999 -999
2007-09-25 13:22:22 51°16.395 2°36.17 -999 -999 -999 -999
2007-09-25 13:23:22 51°16.282 2°36.412 -999 -999 -999 -999
2007-09-25 13:24:22 51°16.309 2°36.724 -999 -999 -999 -999
2007-09-25 13:25:22 51°16.39 2°37.015 -999 -999 -999 -999
2007-09-25 13:26:22 51°16.489 2°37.087 -999 -999 -999 -999
2007-09-25 13:27:22 51°16.541 2°37.043 -999 -999 -999 -999
2007-09-25 13:28:22 51°16.555 2°36.929 -999 -999 -999 -999
2007-09-25 13:29:22 51°16.587 2°36.836 -999 -999 -999 -999
2007-09-25 13:30:22 51°16.613 2°36.807 -999 -999 -999 -999
2007-09-25 13:31:22 51°16.64 2°36.823 -999 -999 -999 -999
2007-09-25 13:32:21 51°16.667 2°36.852 -999 -999 -999 -999
2007-09-25 13:33:22 51°16.694 2°36.886 -999 -999 -999 -999
2007-09-25 13:34:21 51°16.718 2°36.918 -999 -999 -999 -999
2007-09-25 13:35:22 51°16.758 2°36.916 -999 -999 -999 -999
2007-09-25 13:36:22 51°16.748 2°36.873 -999 -999 -999 -999
2007-09-25 13:37:22 51°16.66 2°36.932 -999 -999 -999 -999
2007-09-25 13:38:22 51°16.484 2°37.014 -999 -999 -999 -999
2007-09-25 13:39:22 51°16.307 2°37.134 -999 -999 -999 -999
2007-09-25 13:40:22 51°16.136 2°37.289 -999 -999 -999 -999
2007-09-25 13:41:22 51°15.967 2°37.439 -999 -999 -999 -999
2007-09-25 13:42:22 51°15.799 2°37.592 -999 -999 -999 -999
2007-09-25 13:43:22 51°15.627 2°37.746 -999 -999 -999 -999
2007-09-25 13:44:22 51°15.453 2°37.901 -999 -999 -999 -999
2007-09-25 13:45:22 51°15.277 2°38.049 -999 -999 -999 -999
2007-09-25 13:46:22 51°15.102 2°38.199 -999 -999 -999 -999
2007-09-25 13:47:22 51°14.925 2°38.347 -999 -999 -999 -999
2007-09-25 13:48:22 51°14.75 2°38.502 -999 -999 -999 -999
2007-09-25 13:49:22 51°14.577 2°38.656 -999 -999 -999 -999
2007-09-25 13:50:21 51°14.403 2°38.803 -999 -999 -999 -999
2007-09-25 13:51:22 51°14.223 2°38.955 -999 -999 -999 -999
2007-09-25 13:52:22 51°14.036 2°39.028 -999 -999 -999 -999
2007-09-25 13:53:22 51°13.847 2°38.963 -999 -999 -999 -999
2007-09-25 13:54:22 51°13.665 2°38.854 -999 -999 -999 -999
2007-09-25 13:55:22 51°13.485 2°38.746 -999 -999 -999 -999
2007-09-25 13:56:22 51°13.303 2°38.639 -999 -999 -999 -999
2007-09-25 13:57:21 51°13.126 2°38.524 -999 -999 -999 -999
2007-09-25 13:58:22 51°12.944 2°38.403 -999 -999 -999 -999
2007-09-25 13:59:22 51°12.766 2°38.284 -999 -999 -999 -999
2007-09-25 14:00:22 51°12.588 2°38.166 -999 -999 -999 -999
2007-09-25 14:01:22 51°12.408 2°38.05 -999 -999 -999 -999
2007-09-25 14:02:22 51°12.229 2°37.933 -999 -999 -999 -999
2007-09-25 14:03:22 51°12.05 2°37.815 -999 -999 -999 -999
2007-09-25 14:04:22 51°11.875 2°37.683 -999 -999 -999 -999
2007-09-25 14:05:22 51°11.701 2°37.548 -999 -999 -999 -999
2007-09-25 14:06:22 51°11.526 2°37.414 -999 -999 -999 -999
2007-09-25 14:07:21 51°11.353 2°37.282 -999 -999 -999 -999
2007-09-25 14:08:22 51°11.174 2°37.147 -999 -999 -999 -999
2007-09-25 14:09:22 51°10.999 2°37.014 -999 -999 -999 -999
2007-09-25 14:10:22 51°10.825 2°36.882 -999 -999 -999 -999
2007-09-25 14:11:22 51°10.653 2°36.748 -999 -999 -999 -999
2007-09-25 14:12:22 51°10.48 2°36.617 -999 -999 -999 -999
2007-09-25 14:13:22 51°10.296 2°36.551 -999 -999 -999 -999
2007-09-25 14:14:22 51°10.138 2°36.727 -999 -999 -999 -999
2007-09-25 14:15:22 51°10.108 2°37.045 -999 -999 -999 -999
2007-09-25 14:16:22 51°10.151 2°37.371 -999 -999 -999 -999
2007-09-25 14:17:22 51°10.185 2°37.701 -999 -999 -999 -999
2007-09-25 14:18:22 51°10.221 2°38.032 -999 -999 -999 -999
2007-09-25 14:19:22 51°10.25 2°38.365 -999 -999 -999 -999
2007-09-25 14:20:22 51°10.287 2°38.695 -999 -999 -999 -999
2007-09-25 14:21:22 51°10.321 2°39.027 -999 -999 -999 -999
2007-09-25 14:22:22 51°10.363 2°39.357 -999 -999 -999 -999
2007-09-25 14:23:22 51°10.403 2°39.684 -999 -999 -999 -999
2007-09-25 14:24:22 51°10.466 2°40 -999 -999 -999 -999
2007-09-25 14:25:22 51°10.522 2°40.318 -999 -999 -999 -999
2007-09-25 14:26:22 51°10.568 2°40.639 -999 -999 -999 -999
2007-09-25 14:27:22 51°10.615 2°40.959 -999 -999 -999 -999
2007-09-25 14:28:22 51°10.66 2°41.279 -999 -999 -999 -999
2007-09-25 14:29:22 51°10.701 2°41.599 -999 -999 -999 -999
2007-09-25 14:30:22 51°10.743 2°41.917 -999 -999 -999 -999
2007-09-25 14:31:22 51°10.788 2°42.227 -999 -999 -999 -999
2007-09-25 14:32:22 51°10.892 2°42.316 -999 -999 -999 -999
2007-09-25 14:33:22 51°10.991 2°42.284 -999 -999 -999 -999
2007-09-25 14:34:22 51°11.061 2°42.177 -999 -999 -999 -999
2007-09-25 14:35:22 51°11.106 2°42.098 -999 -999 -999 -999
2007-09-25 14:36:22 51°11.124 2°42.075 -999 -999 -999 -999
2007-09-25 14:37:22 51°11.133 2°42.087 -999 -999 -999 -999
2007-09-25 14:38:22 51°11.139 2°42.104 -999 -999 -999 -999
2007-09-25 14:39:22 51°11.144 2°42.123 -999 -999 -999 -999
2007-09-25 14:40:22 51°11.148 2°42.141 -999 -999 -999 -999
2007-09-25 14:41:22 51°11.171 2°42.196 -999 -999 -999 -999
2007-09-25 14:42:22 51°11.161 2°42.374 -999 -999 -999 -999
2007-09-25 14:43:22 51°11.158 2°42.689 -999 -999 -999 -999
2007-09-25 14:44:22 51°11.186 2°43.016 -999 -999 -999 -999
2007-09-25 14:45:22 51°11.243 2°43.33 -999 -999 -999 -999
2007-09-25 14:46:22 51°11.311 2°43.637 -999 -999 -999 -999
2007-09-25 14:47:22 51°11.375 2°43.945 -999 -999 -999 -999
2007-09-25 14:48:22 51°11.443 2°44.251 -999 -999 -999 -999
2007-09-25 14:49:22 51°11.511 2°44.559 -999 -999 -999 -999
2007-09-25 14:50:22 51°11.576 2°44.869 -999 -999 -999 -999
2007-09-25 14:51:22 51°11.638 2°45.181 -999 -999 -999 -999
2007-09-25 14:52:22 51°11.7 2°45.493 -999 -999 -999 -999
2007-09-25 14:53:22 51°11.763 2°45.805 -999 -999 -999 -999
2007-09-25 14:54:22 51°11.828 2°46.114 -999 -999 -999 -999
2007-09-25 14:55:22 51°11.89 2°46.426 -999 -999 -999 -999
2007-09-25 14:56:22 51°11.955 2°46.735 -999 -999 -999 -999
2007-09-25 14:57:22 51°12.019 2°47.043 -999 -999 -999 -999
2007-09-25 14:58:22 51°12.096 2°47.343 -999 -999 -999 -999
2007-09-25 14:59:22 51°12.179 2°47.638 -999 -999 -999 -999
2007-09-25 15:00:22 51°12.271 2°47.927 -999 -999 -999 -999
2007-09-25 15:01:22 51°12.37 2°48.212 -999 -999 -999 -999
2007-09-25 15:02:22 51°12.455 2°48.506 -999 -999 -999 -999
2007-09-25 15:03:22 51°12.541 2°48.799 -999 -999 -999 -999
2007-09-25 15:04:22 51°12.628 2°49.092 -999 -999 -999 -999
2007-09-25 15:05:22 51°12.715 2°49.385 -999 -999 -999 -999
2007-09-25 15:06:22 51°12.804 2°49.674 -999 -999 -999 -999
2007-09-25 15:07:22 51°12.892 2°49.963 -999 -999 -999 -999
2007-09-25 15:08:22 51°12.982 2°50.252 -999 -999 -999 -999
2007-09-25 15:09:22 51°13.077 2°50.533 -999 -999 -999 -999
2007-09-25 15:10:22 51°13.168 2°50.817 -999 -999 -999 -999
2007-09-25 15:11:22 51°13.265 2°51.093 -999 -999 -999 -999
2007-09-25 15:12:22 51°13.359 2°51.374 -999 -999 -999 -999
2007-09-25 15:13:22 51°13.454 2°51.652 -999 -999 -999 -999
2007-09-25 15:14:22 51°13.55 2°51.932 -999 -999 -999 -999
2007-09-25 15:15:22 51°13.649 2°52.209 -999 -999 -999 -999
2007-09-25 15:16:22 51°13.742 2°52.49 -999 -999 -999 -999
2007-09-25 15:17:22 51°13.838 2°52.766 -999 -999 -999 -999
2007-09-25 15:18:22 51°13.93 2°53.048 -999 -999 -999 -999
2007-09-25 15:19:22 51°14.028 2°53.329 -999 -999 -999 -999
2007-09-25 15:20:22 51°14.126 2°53.609 -999 -999 -999 -999
2007-09-25 15:21:22 51°14.215 2°53.893 -999 -999 -999 -999
2007-09-25 15:22:22 51°14.308 2°54.161 -999 -999 -999 -999
2007-09-25 15:23:22 51°14.381 2°54.439 -999 -999 -999 -999
2007-09-25 15:24:22 51°14.383 2°54.747 -999 -999 -999 -999
2007-09-25 15:25:22 51°14.348 2°55.049 -999 -999 -999 -999
2007-09-25 15:26:21 51°14.264 2°55.251 -999 -999 -999 -999
2007-09-25 15:27:22 51°14.186 2°55.357 -999 -999 -999 -999
2007-09-25 15:28:22 51°14.075 2°55.451 -999 -999 -999 -999
2007-09-25 15:29:22 51°13.951 2°55.539 -999 -999 -999 -999
2007-09-25 15:30:25 51°13.825 2°55.637 -999 -999 -999 -999
2007-09-25 15:31:25 51°13.739 2°55.744 -999 -999 -999 -999
2007-09-25 15:32:25 51°13.675 2°55.867 -999 -999 -999 -999
2007-09-25 15:33:26 51°13.632 2°55.973 -999 -999 -999 -999
2007-09-25 15:34:25 51°13.614 2°56.055 -999 -999 -999 -999
2007-09-25 15:35:25 51°13.604 2°56.093 -999 -999 -999 -999
2007-09-25 15:36:25 51°13.601 2°56.1 -999 -999 -999 -999
2007-09-25 15:37:25 51°13.602 2°56.1 -999 -999 -999 -999